Location: Haulchin
(50.3172°N, 3.4360°E)
Time: 20:09:37
(UTC+00:00)

Meteor 1-24 Rocket - Pass Details

Date: 23 May 2024
Orbit: 789 x 927 km, 81.3° (Epoch: 14 June)

Event Time Altitude Azimuth Distance (km) Brightness Sun altitude
Exits shadow 02:02:47 - 173° (S) 2,817 6.0 -12.6°
Reaches altitude 10° 02:03:19 10° 172° (S) 2,624 5.8 -12.6°
Maximum altitude 02:09:10 56° 96° (E) 1,089 4.4 -12.0°
Drops below altitude 10° 02:15:01 10° 19° (NNE) 2,617 7.6 -11.5°
Sets 02:17:31 0° 16° (NNE) 3,550 8.4 -11.3°
